This is the latest recevied weather packets stored in our database for station/object JA3YAI-13. If no packets are shown the sender has not sent any weather packets the latest 10 day(s).
| Time | Temp. | Humidity | Pressure | Rain* | Wind** | Luminosity | Snow |
|---|---|---|---|---|---|---|---|
| 1777611385 | 19.44° C | 69% | 992.7 hPa | 0 mm | - | - | - |
| 1777610784 | 19.44° C | 70% | 993.1 hPa | 0 mm | - | - | - |
| 1777610184 | 18.89° C | 71% | 992.8 hPa | 0 mm | - | - | - |
| 1777609584 | 18.89° C | 73% | 993 hPa | 0 mm | - | - | - |
| 1777608985 | 18.89° C | 71% | 993.2 hPa | 0 mm | - | - | - |
| 1777608385 | 18.89° C | 73% | 993.3 hPa | 0 mm | - | - | - |
| 1777607784 | 18.89° C | 72% | 993.5 hPa | 0 mm | - | - | - |
| 1777607184 | 18.89° C | 72% | 993.4 hPa | 0 mm | - | - | - |
| 1777606586 | 18.89° C | 71% | 993 hPa | 0 mm | - | - | - |
| 1777605985 | 18.89° C | 75% | 993.3 hPa | 0 mm | - | - | - |
| 1777605385 | 18.33° C | 76% | 993.5 hPa | 0 mm | - | - | - |
| 1777604784 | 18.89° C | 77% | 993.4 hPa | 0 mm | - | - | - |
| 1777604184 | 18.89° C | 78% | 993.3 hPa | 0 mm | - | - | - |
| 1777603584 | 18.89° C | 76% | 993.4 hPa | 0 mm | - | - | - |
| 1777602985 | 18.89° C | 80% | 993.5 hPa | 0 mm | - | - | - |
| 1777602385 | 18.33° C | 80% | 993.8 hPa | 0 mm | - | - | - |
| 1777601785 | 18.33° C | 82% | 993.8 hPa | 0 mm | - | - | - |
| 1777601184 | 18.33° C | 82% | 993.9 hPa | 0 mm | - | - | - |
| 1777600584 | 18.33° C | 83% | 994 hPa | 0 mm | - | - | - |
| 1777599985 | 18.33° C | 83% | 994.1 hPa | 0 mm | - | - | - |
| 1777599385 | 17.78° C | 83% | 994 hPa | 0 mm | - | - | - |
| 1777598785 | 17.78° C | 88% | 994.1 hPa | 0 mm | - | - | - |
| 1777598184 | 16.67° C | 90% | 994.2 hPa | 0 mm | - | - | - |
| 1777597584 | 16.11° C | 92% | 994.3 hPa | 0.25 mm | - | - | - |
| 1777596985 | 16.11° C | 93% | 994.3 hPa | 0.25 mm | - | - | - |
* Rain latest hour (hover to see other rain measurements)
** Current wind speed in m/s (hover to see current wind gust speed)